Find KUIPER-00448

NORAD ID: 68871 Int'l Des: 2026-095H Owner: kuiper Country: USA Constellation: kuiper operational
LEOCIRCULAR

リアルタイム位置

3D地球を読み込み中...

KUIPER-00448について

説明を読み込み中...

次回通過

Passes for default location (London). Set your location on the main map for personalized predictions.

高度履歴

Loading altitude history...

軌道要素

1 68871U 26095H 26121.83336806 .00060863 00000-0 16144-2 0 9992
2 68871 51.8820 106.5000 0003556 109.0799 54.5045 15.37726827 1329
Epoch: May 1, 2026 • Age: 6 hours

現在のステータス

高度 454.4 km
速度 7.65 km/s
衛星直下点 37.41°N, 104.25°W
タイプ internet

Most Searched